Simultaneous Nadir Overpasses (SNOs) Predictions

Prediction of SNOs between AQUA and NOAA-19 Satellite Orbit:

Table of predicted SNOs for the next 14.0 days since TLE Epoch: 9/28/2013
Index Date (AQUA) Time (AQUA) Lat,Lon (AQUA) SZA (AQUA ) Date (NOAA-19) Time (NOAA-19) Lat,Lon (NOAA-19) SZA (NOAA-19 ) Distance(km) Time Diff (sec)
1 09/30/2013 06:06:10 -65.64, -86.13 111.37 09/30/2013 06:05:19 -65.64, -86.10 111.39 1.48 51
2 09/30/2013 06:54:04 60.23, 85.84 63.65 09/30/2013 06:54:50 60.23, 85.84 63.68 0.15 46
3 10/02/2013 10:50:34 -66.03,-157.58 110.15 10/02/2013 10:49:40 -66.02,-157.56 110.16 1.18 54
4 10/02/2013 11:38:35 61.03, 14.22 65.25 10/02/2013 11:39:18 61.04, 14.20 65.27 1.05 43
5 10/04/2013 15:34:55 -66.26, 131.11 109.07 10/04/2013 15:33:58 -66.25, 131.15 109.09 1.73 57
6 10/04/2013 16:23:02 61.62, -57.28 66.65 10/04/2013 16:23:42 61.63, -57.31 66.67 1.54 40
7 10/06/2013 20:19:27 -67.13, 59.13 107.40 10/06/2013 20:18:28 -67.14, 59.09 107.41 1.70 59
8 10/06/2013 21:07:26 62.06,-128.67 67.90 10/06/2013 21:08:03 62.07,-128.70 67.92 1.55 37
9 10/09/2013 01:03:41 -67.01, -11.80 106.67 10/09/2013 01:02:39 -67.01, -11.79 106.68 0.52 62
10 10/09/2013 01:51:48 62.40, 160.00 69.06 10/09/2013 01:52:22 62.40, 159.99 69.08 1.02 34
11 10/11/2013 05:48:07 -67.58, -83.50 105.30 10/11/2013 05:47:03 -67.58, -83.53 105.30 1.27 64




NCC Satellite Simultaneous Nadir Overpasses (SNOs) Prediction Service
